Orange City, IA

7:43 PM CDT on April 22, 2018 (GMT -0500)
Orange City Municipal

Weather History for KORC - March, 2013

Change the Weather History Date:

Monday, March 18, 2013

  Actual Average Record
Temperature  
Mean Temperature 25 °F -  
Max Temperature 33 °F 42 °F 82 °F (2012)
Min Temperature 17 °F 26 °F 12 °F (1949)
Degree Days  
Heating Degree Days 40    
Moisture  
Dew Point 17 °F    
Average Humidity 74    
Maximum Humidity 93    
Minimum Humidity 59    
Precipitation  
Precipitation 0.00 in - - ()
Sea Level Pressure  
Sea Level Pressure 29.81 in    
Wind  
Wind Speed 22 mph (WNW)    
Max Wind Speed 36 mph    
Max Gust Speed 43 mph    
Visibility 8 miles    
Events Rain , Snow    
Averages and records for this station are not official NWS values.
T = Trace of Precipitation, MM = Missing Value Source: NWS Daily Summary

Daily Weather History Graph

Daily Weather History Graph

Search for Another Location

Airport or City:

Astronomy

Mar. 18, 2013 Rise Set
Actual Time 7:30 AM CDT 7:34 PM CDT
Civil Twilight 7:02 AM CDT 8:02 PM CDT
Nautical Twilight 6:29 AM CDT 8:35 PM CDT
Astronomical Twilight 5:55 AM CDT 9:09 PM CDT
Moon 11:22 AM CDT (3/18) 1:43 AM CDT (3/18)
Length of Visible Light 13h 00m
Length of Day
12h 04m
Waxing Crescent, 41% of the Moon is Illuminated
Mar 18
Waxing Crescent
Mar 19
First Quarter
Mar 27
Full
Apr 2
Last Quarter
Apr 10
New

Hourly Weather History & Observations

Time (CDT) Temp. Windchill Dew Point Humidity Pressure Visibility Wind Dir Wind Speed Gust Speed Precip Events Conditions
12:15 AM 33.8 °F 23.9 °F 30.2 °F 87% 29.67 in 3.0 mi SSE 15.0 mph 24.2 mph N/A Snow Snow
12:35 AM 33.8 °F 22.8 °F 30.2 °F 87% 29.66 in 7.0 mi SSE 18.4 mph 29.9 mph N/A   Overcast
12:55 AM 33.8 °F 23.5 °F 30.2 °F 87% 29.67 in 7.0 mi SSE 16.1 mph 23.0 mph N/A   Overcast
1:15 AM 33.8 °F 23.5 °F 30.2 °F 87% 29.67 in 10.0 mi South 16.1 mph 23.0 mph N/A   Overcast
1:35 AM 33.8 °F 24.8 °F 30.2 °F 87% 29.69 in 10.0 mi South 12.7 mph 19.6 mph N/A   Overcast
1:55 AM 33.8 °F 23.9 °F 30.2 °F 87% 29.69 in 10.0 mi South 15.0 mph - N/A   Overcast
2:15 AM 33.8 °F 22.5 °F 30.2 °F 87% 29.69 in 7.0 mi South 19.6 mph 24.2 mph N/A   Overcast
2:35 AM 33.8 °F 23.2 °F 30.2 °F 87% 29.68 in 7.0 mi South 17.3 mph - N/A   Overcast
2:55 AM 33.8 °F 22.2 °F 30.2 °F 87% 29.69 in 3.0 mi SSW 20.7 mph 26.5 mph N/A   Overcast
3:15 AM 33.8 °F 22.2 °F 30.2 °F 87% 29.68 in 2.5 mi SSW 20.7 mph - N/A   Overcast
3:35 AM 33.8 °F 22.8 °F 30.2 °F 87% 29.67 in 2.0 mi SSW 18.4 mph - N/A Rain Light Rain
3:55 AM 33.8 °F 23.2 °F 30.2 °F 87% 29.67 in 2.0 mi SSW 17.3 mph - N/A   Overcast
4:15 AM 33.8 °F 23.2 °F 30.2 °F 87% 29.66 in 2.5 mi SW 17.3 mph - N/A   Drizzle
4:35 AM 33.8 °F 22.2 °F 32.0 °F 93% 29.66 in 3.0 mi West 20.7 mph 31.1 mph N/A Rain Rain
4:55 AM 33.8 °F 21.6 °F 28.4 °F 81% 29.66 in 10.0 mi WNW 23.0 mph 29.9 mph N/A   Overcast
5:15 AM 33.8 °F 21.6 °F 28.4 °F 81% 29.67 in 10.0 mi WNW 23.0 mph 27.6 mph N/A   Overcast
5:35 AM 30.2 °F 17.1 °F 26.6 °F 86% 29.67 in 10.0 mi WNW 21.9 mph 31.1 mph N/A   Overcast
5:55 AM 30.2 °F 16.5 °F 24.8 °F 80% 29.68 in 10.0 mi WNW 24.2 mph 32.2 mph N/A   Overcast
6:15 AM 28.4 °F 12.7 °F 23.0 °F 80% 29.69 in 10.0 mi WNW 29.9 mph 38.0 mph N/A   Overcast
6:35 AM 26.6 °F 11.1 °F 21.2 °F 80% 29.70 in 10.0 mi NW 26.5 mph 36.8 mph N/A   Mostly Cloudy
6:55 AM 26.6 °F 10.6 °F 21.2 °F 80% 29.70 in 10.0 mi WNW 28.8 mph 36.8 mph N/A   Overcast
7:15 AM 24.8 °F 8.4 °F 19.4 °F 80% 29.71 in 10.0 mi WNW 27.6 mph 34.5 mph N/A   Overcast
7:55 AM 21.2 °F 3.9 °F 15.8 °F 80% 29.74 in 10.0 mi WNW 26.5 mph 35.7 mph N/A   Mostly Cloudy
8:15 AM 21.2 °F 6.0 °F 15.8 °F 80% 29.75 in 10.0 mi NW 19.6 mph 33.4 mph N/A   Scattered Clouds
8:35 AM 21.2 °F 4.2 °F 15.8 °F 80% 29.75 in 10.0 mi NW 25.3 mph 28.8 mph N/A   Mostly Cloudy
8:55 AM 21.2 °F 4.9 °F 15.8 °F 80% 29.76 in 2.5 mi NW 23.0 mph 31.1 mph N/A Snow Light Snow
9:15 AM 21.2 °F 4.5 °F 15.8 °F 80% 29.76 in 7.0 mi NW 24.2 mph 34.5 mph N/A Snow Light Snow
9:35 AM 21.2 °F 5.2 °F 14.0 °F 74% 29.77 in 10.0 mi NW 21.9 mph 31.1 mph N/A   Mostly Cloudy
9:55 AM 19.4 °F 0.8 °F 12.2 °F 74% 29.78 in 5.0 mi NW 28.8 mph 38.0 mph N/A Snow Light Snow
10:15 AM 19.4 °F 0.2 °F 10.4 °F 68% 29.79 in 7.0 mi NW 31.1 mph 36.8 mph N/A Snow Light Snow
10:35 AM 19.4 °F 2.5 °F 10.4 °F 68% 29.79 in 10.0 mi NW 23.0 mph 36.8 mph N/A   Overcast
10:55 AM 19.4 °F 0.5 °F 12.2 °F 74% 29.80 in 7.0 mi NW 29.9 mph 35.7 mph N/A Snow Light Snow
11:15 AM 19.4 °F -0.3 °F 10.4 °F 68% 29.81 in 10.0 mi NW 33.4 mph 40.3 mph N/A   Overcast
11:35 AM 19.4 °F -0.6 °F 10.4 °F 68% 29.82 in 10.0 mi NW 34.5 mph 42.6 mph N/A   Overcast
11:55 AM 17.6 °F -2.8 °F 8.6 °F 68% 29.82 in 7.0 mi WNW 33.4 mph 40.3 mph N/A   Overcast
12:15 PM 17.6 °F -1.9 °F 12.2 °F 79% 29.83 in 2.5 mi NW 29.9 mph 38.0 mph N/A Snow Light Snow
12:35 PM 17.6 °F -1.9 °F 10.4 °F 73% 29.83 in 2.0 mi WNW 29.9 mph 38.0 mph N/A Snow Light Snow
12:55 PM 17.6 °F -1.0 °F 10.4 °F 73% 29.84 in 10.0 mi WNW 26.5 mph 35.7 mph N/A   Overcast
1:15 PM 19.4 °F 0.5 °F 10.4 °F 68% 29.85 in 10.0 mi WNW 29.9 mph 40.3 mph N/A   Overcast
1:35 PM 19.4 °F 0.2 °F 10.4 °F 68% 29.84 in 10.0 mi WNW 31.1 mph 36.8 mph N/A   Overcast
1:55 PM 19.4 °F 0.2 °F 10.4 °F 68% 29.84 in 10.0 mi WNW 31.1 mph 38.0 mph N/A   Overcast
2:15 PM 19.4 °F 0.2 °F 10.4 °F 68% 29.84 in 10.0 mi NW 31.1 mph 39.1 mph N/A   Overcast
2:35 PM 21.2 °F 3.0 °F 10.4 °F 63% 29.85 in 10.0 mi NW 29.9 mph 40.3 mph N/A   Overcast
2:55 PM 21.2 °F 3.0 °F 10.4 °F 63% 29.84 in 1.5 mi WNW 29.9 mph 39.1 mph N/A   Haze
3:15 PM 21.2 °F 2.4 °F 12.2 °F 68% 29.84 in 10.0 mi NW 32.2 mph 39.1 mph N/A   Overcast
3:35 PM 21.2 °F 1.7 °F 12.2 °F 68% 29.84 in 10.0 mi WNW 35.7 mph 41.4 mph N/A Snow Light Snow
3:55 PM 21.2 °F 2.7 °F 12.2 °F 68% 29.85 in 10.0 mi NW 31.1 mph 39.1 mph N/A   Overcast
4:15 PM 21.2 °F 2.7 °F 12.2 °F 68% 29.86 in 10.0 mi NW 31.1 mph 38.0 mph N/A   Overcast
4:35 PM 23.0 °F 4.9 °F 12.2 °F 63% 29.87 in 10.0 mi NW 32.2 mph 36.8 mph N/A   Overcast
4:55 PM 23.0 °F 5.1 °F 12.2 °F 63% 29.87 in 10.0 mi NW 31.1 mph 42.6 mph N/A   Overcast
5:15 PM 24.8 °F 8.4 °F 12.2 °F 59% 29.88 in 10.0 mi NW 27.6 mph 39.1 mph N/A   Mostly Cloudy
5:35 PM 24.8 °F 7.3 °F 12.2 °F 59% 29.88 in 10.0 mi NW 32.2 mph 38.0 mph N/A   Mostly Cloudy
5:55 PM 24.8 °F 9.6 °F 12.2 °F 59% 29.89 in 10.0 mi NW 23.0 mph 38.0 mph N/A   Mostly Cloudy
6:15 PM 24.8 °F 9.0 °F 14.0 °F 64% 29.89 in 10.0 mi NW 25.3 mph 36.8 mph N/A   Mostly Cloudy
6:35 PM 23.0 °F 6.3 °F 10.4 °F 59% 29.90 in 10.0 mi NW 26.5 mph 39.1 mph N/A   Mostly Cloudy
6:55 PM 21.2 °F 6.8 °F 10.4 °F 63% 29.92 in 10.0 mi NW 17.3 mph 31.1 mph N/A   Scattered Clouds
7:15 PM 21.2 °F 7.3 °F 10.4 °F 63% 29.93 in 10.0 mi NW 16.1 mph 26.5 mph N/A   Scattered Clouds
7:35 PM 21.2 °F 7.3 °F 10.4 °F 63% 29.94 in 10.0 mi NW 16.1 mph 24.2 mph N/A   Scattered Clouds
7:55 PM 19.4 °F 5.0 °F 10.4 °F 68% 29.95 in 10.0 mi NW 16.1 mph 24.2 mph N/A   Clear
8:15 PM 19.4 °F 4.5 °F 10.4 °F 68% 29.96 in 10.0 mi NW 17.3 mph 24.2 mph N/A   Clear
8:35 PM 19.4 °F 5.0 °F 10.4 °F 68% 29.97 in 10.0 mi NW 16.1 mph 26.5 mph N/A   Clear
8:55 PM 19.4 °F 4.1 °F 10.4 °F 68% 29.97 in 10.0 mi NW 18.4 mph 26.5 mph N/A   Clear
9:15 PM 19.4 °F 4.5 °F 8.6 °F 63% 29.98 in 10.0 mi NW 17.3 mph 24.2 mph N/A   Clear
9:35 PM 19.4 °F 6.6 °F 8.6 °F 63% 29.98 in 10.0 mi NNW 12.7 mph 21.9 mph N/A   Clear
9:55 PM 19.4 °F 5.5 °F 10.4 °F 68% 29.99 in 10.0 mi NW 15.0 mph 21.9 mph N/A   Clear
10:15 PM 17.6 °F 2.7 °F 10.4 °F 73% 29.99 in 10.0 mi NW 16.1 mph 25.3 mph N/A   Clear
10:55 PM 17.6 °F 4.3 °F 10.4 °F 73% 29.98 in 10.0 mi NW 12.7 mph 21.9 mph N/A   Clear
11:15 PM 17.6 °F 3.7 °F 10.4 °F 73% 29.98 in 10.0 mi NNW 13.8 mph - N/A   Clear
11:35 PM 17.6 °F 5.0 °F 10.4 °F 73% 29.98 in 10.0 mi NNW 11.5 mph 20.7 mph N/A   Clear
11:55 PM 17.6 °F 3.7 °F 10.4 °F 73% 29.97 in 10.0 mi NNW 13.8 mph 18.4 mph N/A   Clear